Time,TemperatureF,DewpointF,PressureIn,WindDirection,WindDirectionDegrees,WindSpeedMPH,WindSpeedGustMPH,Humidity,HourlyPrecipIn,Conditions,Clouds,dailyrainin,SoftwareType,DateUTC
2014-04-20 00:01:00,47.5,36.0,30.09,ENE,76,0.0,0.9,64,0.00,,,0.00,meteobridge,2014-04-20 07:01:00,
2014-04-20 00:03:00,47.5,36.3,30.09,ENE,77,0.0,0.0,65,0.00,,,0.00,meteobridge,2014-04-20 07:03:00,
2014-04-20 00:04:00,47.5,36.3,30.09,ENE,76,0.0,0.0,65,0.00,,,0.00,meteobridge,2014-04-20 07:04:00,
2014-04-20 00:05:00,47.5,36.0,30.09,ENE,76,0.0,0.0,64,0.00,,,0.00,meteobridge,2014-04-20 07:05:00,
2014-04-20 00:06:00,47.5,36.3,30.09,ENE,76,0.0,0.0,65,0.00,,,0.00,meteobridge,2014-04-20 07:06:00,
2014-04-20 00:08:00,47.5,36.0,30.09,ENE,76,0.9,0.9,64,0.00,,,0.00,meteobridge,2014-04-20 07:08:00,
2014-04-20 00:09:00,47.5,36.3,30.09,ENE,76,0.9,0.9,65,0.00,,,0.00,meteobridge,2014-04-20 07:09:00,
2014-04-20 00:11:00,47.5,36.3,30.09,ENE,76,0.0,0.9,65,0.00,,,0.00,meteobridge,2014-04-20 07:11:00,
2014-04-20 00:12:00,47.5,36.3,30.09,ENE,76,0.0,0.0,65,0.00,,,0.00,meteobridge,2014-04-20 07:12:00,
2014-04-20 00:13:00,47.5,36.3,30.09,ENE,76,0.0,0.0,65,0.00,,,0.00,meteobridge,2014-04-20 07:13:00,
2014-04-20 00:14:00,47.3,35.4,30.09,ENE,76,0.9,0.9,63,0.00,,,0.00,meteobridge,2014-04-20 07:14:00,
2014-04-20 00:15:00,47.3,35.8,30.09,ENE,77,0.0,0.9,64,0.00,,,0.00,meteobridge,2014-04-20 07:15:00,
2014-04-20 00:17:00,47.5,35.6,30.09,ENE,76,0.0,0.9,63,0.00,,,0.00,meteobridge,2014-04-20 07:17:00,
2014-04-20 00:18:00,47.5,36.0,30.09,ENE,77,0.0,0.0,64,0.00,,,0.00,meteobridge,2014-04-20 07:18:00,
2014-04-20 00:19:00,47.5,36.0,30.09,ENE,76,0.0,0.9,64,0.00,,,0.00,meteobridge,2014-04-20 07:19:00,
2014-04-20 00:21:00,47.5,35.6,30.09,ENE,76,0.0,0.9,63,0.00,,,0.00,meteobridge,2014-04-20 07:21:00,
2014-04-20 00:22:00,47.5,35.6,30.09,ENE,76,0.0,0.0,63,0.00,,,0.00,meteobridge,2014-04-20 07:22:00,
2014-04-20 00:23:00,47.5,35.6,30.09,ENE,76,0.0,0.0,63,0.00,,,0.00,meteobridge,2014-04-20 07:23:00,
2014-04-20 00:24:00,47.5,35.6,30.09,ENE,76,0.0,0.9,63,0.00,,,0.00,meteobridge,2014-04-20 07:24:00,
2014-04-20 00:26:00,47.5,35.6,30.09,ENE,76,0.0,0.0,63,0.00,,,0.00,meteobridge,2014-04-20 07:26:00,
2014-04-20 00:28:00,47.5,36.0,30.09,ENE,76,0.0,0.0,64,0.00,,,0.00,meteobridge,2014-04-20 07:28:00,
2014-04-20 00:29:00,47.5,35.6,30.09,ENE,76,0.9,0.9,63,0.00,,,0.00,meteobridge,2014-04-20 07:29:00,
2014-04-20 00:30:00,47.5,36.0,30.09,ENE,76,0.0,0.9,64,0.00,,,0.00,meteobridge,2014-04-20 07:30:00,
2014-04-20 00:31:00,47.5,36.0,30.09,ENE,76,0.0,0.9,64,0.00,,,0.00,meteobridge,2014-04-20 07:31:00,
2014-04-20 00:33:00,47.5,35.1,30.10,ENE,76,0.0,0.0,62,0.00,,,0.00,meteobridge,2014-04-20 07:33:00,
2014-04-20 00:34:00,47.5,35.6,30.10,ENE,76,0.0,0.0,63,0.00,,,0.00,meteobridge,2014-04-20 07:34:00,
2014-04-20 00:35:00,47.5,35.6,30.10,ENE,76,0.0,0.0,63,0.00,,,0.00,meteobridge,2014-04-20 07:35:00,
2014-04-20 00:37:00,47.7,35.2,30.09,ENE,76,0.0,0.0,62,0.00,,,0.00,meteobridge,2014-04-20 07:37:00,
2014-04-20 00:40:00,47.7,34.9,30.10,ENE,76,0.0,0.9,61,0.00,,,0.00,meteobridge,2014-04-20 07:40:00,
2014-04-20 00:43:00,47.7,34.9,30.10,ENE,76,0.9,0.9,61,0.00,,,0.00,meteobridge,2014-04-20 07:43:00,
2014-04-20 00:45:00,47.8,35.4,30.10,ENE,76,0.0,0.9,62,0.00,,,0.00,meteobridge,2014-04-20 07:45:00,
2014-04-20 00:48:00,47.8,35.8,30.10,ENE,76,0.9,0.9,63,0.00,,,0.00,meteobridge,2014-04-20 07:48:00,
2014-04-20 00:49:00,47.8,35.8,30.10,ENE,76,0.0,0.9,63,0.00,,,0.00,meteobridge,2014-04-20 07:49:00,
2014-04-20 00:50:00,47.8,35.8,30.10,ENE,76,0.0,0.9,63,0.00,,,0.00,meteobridge,2014-04-20 07:50:00,
2014-04-20 00:53:00,48.0,35.6,30.10,ENE,76,0.9,0.9,62,0.00,,,0.00,meteobridge,2014-04-20 07:53:00,
2014-04-20 00:55:00,48.0,35.2,30.10,ENE,76,0.0,0.9,61,0.00,,,0.00,meteobridge,2014-04-20 07:55:00,
2014-04-20 00:57:00,48.0,35.6,30.10,ENE,76,0.0,0.9,62,0.00,,,0.00,meteobridge,2014-04-20 07:57:00,
2014-04-20 00:58:00,48.0,35.6,30.10,ENE,76,0.0,0.9,62,0.00,,,0.00,meteobridge,2014-04-20 07:58:00,
2014-04-20 01:00:00,48.0,35.6,30.10,ENE,76,0.0,0.9,62,0.00,,,0.00,meteobridge,2014-04-20 08:00:00,
2014-04-20 01:01:00,48.0,35.2,30.10,ENE,76,0.9,0.9,61,0.00,,,0.00,meteobridge,2014-04-20 08:01:00,
2014-04-20 01:03:00,48.0,35.2,30.10,ENE,76,0.9,0.9,61,0.00,,,0.00,meteobridge,2014-04-20 08:03:00,
2014-04-20 01:06:00,48.0,34.3,30.10,ENE,76,0.0,0.9,59,0.00,,,0.00,meteobridge,2014-04-20 08:06:00,
2014-04-20 01:08:00,48.0,35.6,30.10,ENE,76,0.0,0.9,62,0.00,,,0.00,meteobridge,2014-04-20 08:08:00,
2014-04-20 01:09:00,48.2,34.2,30.10,ENE,76,0.0,0.9,58,0.00,,,0.00,meteobridge,2014-04-20 08:09:00,
2014-04-20 01:10:00,48.2,34.9,30.10,ENE,76,0.0,0.9,60,0.00,,,0.00,meteobridge,2014-04-20 08:10:00,
2014-04-20 01:12:00,48.2,34.2,30.10,ENE,76,0.0,0.9,58,0.00,,,0.00,meteobridge,2014-04-20 08:12:00,
2014-04-20 01:14:00,48.4,34.7,30.10,ENE,76,0.9,0.9,59,0.00,,,0.00,meteobridge,2014-04-20 08:14:00,
2014-04-20 01:17:00,48.4,34.3,30.10,ENE,76,0.9,0.9,58,0.00,,,0.00,meteobridge,2014-04-20 08:17:00,
2014-04-20 01:18:00,48.4,34.3,30.10,ENE,76,0.0,0.9,58,0.00,,,0.00,meteobridge,2014-04-20 08:18:00,
2014-04-20 01:20:00,48.4,35.1,30.10,ENE,76,0.0,0.9,60,0.00,,,0.00,meteobridge,2014-04-20 08:20:00,
2014-04-20 01:21:00,48.4,35.1,30.10,ENE,76,0.0,0.9,60,0.00,,,0.00,meteobridge,2014-04-20 08:21:00,
2014-04-20 01:22:00,48.4,35.1,30.10,ENE,76,0.0,0.9,60,0.00,,,0.00,meteobridge,2014-04-20 08:22:00,
2014-04-20 01:23:00,48.4,34.7,30.10,ENE,76,0.0,0.9,59,0.00,,,0.00,meteobridge,2014-04-20 08:23:00,
2014-04-20 01:25:00,48.4,33.8,30.10,ENE,76,0.0,0.9,57,0.00,,,0.00,meteobridge,2014-04-20 08:25:00,
2014-04-20 01:27:00,48.6,34.5,30.10,ENE,76,0.0,0.9,58,0.00,,,0.00,meteobridge,2014-04-20 08:27:00,
2014-04-20 01:28:00,48.6,33.1,30.10,ENE,76,0.0,0.9,55,0.00,,,0.00,meteobridge,2014-04-20 08:28:00,
2014-04-20 01:31:00,48.6,33.6,30.10,ENE,76,0.0,2.0,56,0.00,,,0.00,meteobridge,2014-04-20 08:31:00,
2014-04-20 01:32:00,48.6,34.5,30.10,ENE,76,0.0,0.9,58,0.00,,,0.00,meteobridge,2014-04-20 08:32:00,
2014-04-20 01:34:00,48.6,34.9,30.10,ENE,76,0.0,0.9,59,0.00,,,0.00,meteobridge,2014-04-20 08:34:00,
2014-04-20 01:35:00,48.6,34.9,30.10,ENE,76,0.0,0.9,59,0.00,,,0.00,meteobridge,2014-04-20 08:35:00,
2014-04-20 01:37:00,48.7,33.8,30.10,ENE,76,0.0,0.9,56,0.00,,,0.00,meteobridge,2014-04-20 08:37:00,
2014-04-20 01:38:00,48.7,34.2,30.10,ENE,76,0.0,0.9,57,0.00,,,0.00,meteobridge,2014-04-20 08:38:00,
2014-04-20 01:41:00,48.7,34.2,30.10,ENE,76,0.0,0.9,57,0.00,,,0.00,meteobridge,2014-04-20 08:41:00,
2014-04-20 01:43:00,48.7,34.7,30.10,ENE,76,0.9,0.9,58,0.00,,,0.00,meteobridge,2014-04-20 08:43:00,
2014-04-20 01:44:00,48.7,35.1,30.10,ENE,76,0.9,0.9,59,0.00,,,0.00,meteobridge,2014-04-20 08:44:00,
2014-04-20 01:45:00,48.9,34.9,30.10,ENE,76,0.0,0.9,58,0.00,,,0.00,meteobridge,2014-04-20 08:45:00,
2014-04-20 01:48:00,48.9,33.4,30.10,ENE,76,0.9,0.9,55,0.00,,,0.00,meteobridge,2014-04-20 08:48:00,
2014-04-20 01:49:00,48.9,34.9,30.10,ENE,76,0.0,0.9,58,0.00,,,0.00,meteobridge,2014-04-20 08:49:00,
2014-04-20 01:50:00,48.9,34.9,30.10,ENE,76,0.0,0.9,58,0.00,,,0.00,meteobridge,2014-04-20 08:50:00,
2014-04-20 01:51:00,49.1,34.9,30.10,ENE,76,0.0,0.9,58,0.00,,,0.00,meteobridge,2014-04-20 08:51:00,
2014-04-20 01:54:00,49.1,34.5,30.10,ENE,76,0.0,0.0,57,0.00,,,0.00,meteobridge,2014-04-20 08:54:00,
2014-04-20 01:56:00,49.1,34.2,30.09,ENE,76,0.0,0.9,56,0.00,,,0.00,meteobridge,2014-04-20 08:56:00,
2014-04-20 01:57:00,49.1,34.9,30.10,ENE,76,0.0,0.9,58,0.00,,,0.00,meteobridge,2014-04-20 08:57:00,
2014-04-20 01:58:00,49.1,34.5,30.10,ENE,76,0.0,0.0,57,0.00,,,0.00,meteobridge,2014-04-20 08:58:00,
2014-04-20 02:01:00,49.1,35.8,30.09,ENE,76,0.0,0.9,60,0.00,,,0.00,meteobridge,2014-04-20 09:01:00,
2014-04-20 02:02:00,49.1,34.5,30.09,ENE,76,0.0,0.9,57,0.00,,,0.00,meteobridge,2014-04-20 09:02:00,
2014-04-20 02:03:00,49.1,35.4,30.10,ENE,76,0.0,0.0,59,0.00,,,0.00,meteobridge,2014-04-20 09:03:00,
2014-04-20 02:05:00,48.9,35.6,30.09,ENE,76,0.9,0.9,60,0.00,,,0.00,meteobridge,2014-04-20 09:05:00,
2014-04-20 02:06:00,48.9,35.6,30.09,ENE,76,0.0,0.9,60,0.00,,,0.00,meteobridge,2014-04-20 09:06:00,
2014-04-20 02:08:00,48.9,34.9,30.09,ENE,76,0.0,0.0,58,0.00,,,0.00,meteobridge,2014-04-20 09:08:00,
2014-04-20 02:09:00,48.9,34.9,30.09,ENE,76,0.0,0.0,58,0.00,,,0.00,meteobridge,2014-04-20 09:09:00,
2014-04-20 02:11:00,48.9,36.1,30.10,ENE,76,0.0,0.9,61,0.00,,,0.00,meteobridge,2014-04-20 09:11:00,
2014-04-20 02:12:00,48.9,36.5,30.10,ENE,76,0.9,0.9,62,0.00,,,0.00,meteobridge,2014-04-20 09:12:00,
2014-04-20 02:13:00,48.9,36.5,30.10,ENE,76,0.9,0.9,62,0.00,,,0.00,meteobridge,2014-04-20 09:13:00,
2014-04-20 02:14:00,48.9,35.6,30.10,ENE,76,0.0,0.9,60,0.00,,,0.00,meteobridge,2014-04-20 09:14:00,
2014-04-20 02:15:00,48.9,36.5,30.10,ENE,76,0.0,0.9,62,0.00,,,0.00,meteobridge,2014-04-20 09:15:00,
2014-04-20 02:17:00,48.9,36.9,30.10,ENE,76,0.0,0.9,63,0.00,,,0.00,meteobridge,2014-04-20 09:17:00,
2014-04-20 02:20:00,48.9,36.1,30.10,ENE,76,0.0,0.0,61,0.00,,,0.00,meteobridge,2014-04-20 09:20:00,
2014-04-20 02:21:00,48.9,36.1,30.10,ENE,76,0.0,0.0,61,0.00,,,0.00,meteobridge,2014-04-20 09:21:00,
2014-04-20 02:22:00,48.9,35.6,30.10,ENE,76,0.0,0.9,60,0.00,,,0.00,meteobridge,2014-04-20 09:22:00,
2014-04-20 02:25:00,48.9,36.1,30.10,ENE,76,0.0,0.9,61,0.00,,,0.00,meteobridge,2014-04-20 09:25:00,
2014-04-20 02:26:00,48.9,36.1,30.10,ENE,76,0.0,0.0,61,0.00,,,0.00,meteobridge,2014-04-20 09:26:00,
2014-04-20 02:27:00,48.9,36.1,30.10,ENE,76,0.0,0.9,61,0.00,,,0.00,meteobridge,2014-04-20 09:27:00,
2014-04-20 02:28:00,48.9,34.9,30.10,ENE,76,0.0,0.9,58,0.00,,,0.00,meteobridge,2014-04-20 09:28:00,
2014-04-20 02:30:00,49.1,34.5,30.10,ENE,76,0.0,0.9,57,0.00,,,0.00,meteobridge,2014-04-20 09:30:00,
2014-04-20 02:31:00,49.1,35.4,30.10,ENE,76,0.0,0.9,59,0.00,,,0.00,meteobridge,2014-04-20 09:31:00,
2014-04-20 02:32:00,49.1,35.4,30.10,ENE,76,0.0,0.9,59,0.00,,,0.00,meteobridge,2014-04-20 09:32:00,
2014-04-20 02:33:00,49.3,36.0,30.10,ENE,76,0.0,0.9,60,0.00,,,0.00,meteobridge,2014-04-20 09:33:00,
2014-04-20 02:35:00,49.3,35.1,30.10,ENE,76,0.0,0.9,58,0.00,,,0.00,meteobridge,2014-04-20 09:35:00,
2014-04-20 02:37:00,49.3,34.7,30.10,ENE,76,0.9,0.9,57,0.00,,,0.00,meteobridge,2014-04-20 09:37:00,
2014-04-20 02:38:00,49.3,34.2,30.10,ENE,76,0.0,0.9,56,0.00,,,0.00,meteobridge,2014-04-20 09:38:00,
2014-04-20 02:39:00,49.3,35.1,30.10,ENE,76,0.9,0.9,58,0.00,,,0.00,meteobridge,2014-04-20 09:39:00,
2014-04-20 02:40:00,49.3,36.0,30.10,ENE,76,0.9,0.9,60,0.00,,,0.00,meteobridge,2014-04-20 09:40:00,
2014-04-20 02:41:00,49.3,35.6,30.10,ENE,76,0.9,0.9,59,0.00,,,0.00,meteobridge,2014-04-20 09:41:00,
2014-04-20 02:42:00,49.3,34.7,30.10,ENE,76,0.0,0.9,57,0.00,,,0.00,meteobridge,2014-04-20 09:42:00,
2014-04-20 02:44:00,49.3,34.7,30.10,ENE,76,0.0,0.9,57,0.00,,,0.00,meteobridge,2014-04-20 09:44:00,
2014-04-20 02:46:00,49.3,33.8,30.10,ENE,76,0.0,0.9,55,0.00,,,0.00,meteobridge,2014-04-20 09:46:00,
2014-04-20 02:47:00,49.3,34.7,30.10,ENE,76,0.0,0.9,57,0.00,,,0.00,meteobridge,2014-04-20 09:47:00,
2014-04-20 02:49:00,49.3,34.2,30.10,ENE,76,0.0,0.9,56,0.00,,,0.00,meteobridge,2014-04-20 09:49:00,
2014-04-20 02:50:00,49.3,33.3,30.10,ENE,76,0.0,0.9,54,0.00,,,0.00,meteobridge,2014-04-20 09:50:00,
2014-04-20 02:51:00,49.3,33.3,30.10,ENE,76,0.0,0.9,54,0.00,,,0.00,meteobridge,2014-04-20 09:51:00,
2014-04-20 02:53:00,49.3,35.1,30.10,ENE,76,0.0,0.9,58,0.00,,,0.00,meteobridge,2014-04-20 09:53:00,
2014-04-20 02:54:00,49.3,34.2,30.10,ENE,76,0.9,0.9,56,0.00,,,0.00,meteobridge,2014-04-20 09:54:00,
2014-04-20 02:55:00,49.3,35.1,30.10,ENE,76,0.0,0.9,58,0.00,,,0.00,meteobridge,2014-04-20 09:55:00,
2014-04-20 02:57:00,49.3,34.7,30.10,ENE,76,0.0,0.9,57,0.00,,,0.00,meteobridge,2014-04-20 09:57:00,
2014-04-20 02:58:00,49.3,34.7,30.09,ENE,76,0.0,0.9,57,0.00,,,0.00,meteobridge,2014-04-20 09:58:00,
2014-04-20 02:59:00,49.1,34.2,30.09,ENE,76,0.9,0.9,56,0.00,,,0.00,meteobridge,2014-04-20 09:59:00,
2014-04-20 03:01:00,49.1,34.9,30.09,ENE,76,0.9,0.9,58,0.00,,,0.00,meteobridge,2014-04-20 10:01:00,
2014-04-20 03:02:00,48.9,34.3,30.09,ENE,76,0.9,0.9,57,0.00,,,0.00,meteobridge,2014-04-20 10:02:00,
2014-04-20 03:04:00,48.9,33.4,30.10,ENE,76,0.0,0.9,55,0.00,,,0.00,meteobridge,2014-04-20 10:04:00,
2014-04-20 03:05:00,48.9,33.4,30.09,ENE,76,0.0,0.9,55,0.00,,,0.00,meteobridge,2014-04-20 10:05:00,
2014-04-20 03:07:00,48.9,34.3,30.09,ENE,76,0.0,0.9,57,0.00,,,0.00,meteobridge,2014-04-20 10:07:00,
2014-04-20 03:08:00,48.9,34.3,30.09,ENE,76,0.0,0.9,57,0.00,,,0.00,meteobridge,2014-04-20 10:08:00,
2014-04-20 03:10:00,48.9,34.0,30.09,ENE,76,0.0,0.9,56,0.00,,,0.00,meteobridge,2014-04-20 10:10:00,
2014-04-20 03:11:00,48.9,34.3,30.09,ENE,76,0.0,0.9,57,0.00,,,0.00,meteobridge,2014-04-20 10:11:00,
2014-04-20 03:12:00,48.9,34.3,30.09,ENE,76,0.0,0.9,57,0.00,,,0.00,meteobridge,2014-04-20 10:12:00,
2014-04-20 03:14:00,48.9,34.0,30.09,ENE,76,0.0,0.9,56,0.00,,,0.00,meteobridge,2014-04-20 10:14:00,
2014-04-20 03:15:00,48.9,34.9,30.09,ENE,76,0.9,0.9,58,0.00,,,0.00,meteobridge,2014-04-20 10:15:00,
2014-04-20 03:16:00,48.9,35.2,30.09,ENE,76,0.0,0.9,59,0.00,,,0.00,meteobridge,2014-04-20 10:16:00,
2014-04-20 03:19:00,48.7,34.7,30.09,ENE,76,0.0,0.9,58,0.00,,,0.00,meteobridge,2014-04-20 10:19:00,
2014-04-20 03:20:00,48.7,34.7,30.09,ENE,76,0.9,0.9,58,0.00,,,0.00,meteobridge,2014-04-20 10:20:00,
2014-04-20 03:22:00,48.7,34.7,30.09,ENE,76,0.9,0.9,58,0.00,,,0.00,meteobridge,2014-04-20 10:22:00,
2014-04-20 03:23:00,48.7,35.1,30.09,ENE,76,0.9,0.9,59,0.00,,,0.00,meteobridge,2014-04-20 10:23:00,
2014-04-20 03:25:00,48.6,34.5,30.09,ENE,76,0.9,0.9,58,0.00,,,0.00,meteobridge,2014-04-20 10:25:00,
2014-04-20 03:27:00,48.6,33.6,30.09,ENE,76,0.0,0.9,56,0.00,,,0.00,meteobridge,2014-04-20 10:27:00,
2014-04-20 03:28:00,48.6,35.2,30.09,ENE,76,0.0,0.9,60,0.00,,,0.00,meteobridge,2014-04-20 10:28:00,
2014-04-20 03:30:00,48.4,33.8,30.09,ENE,76,0.9,0.9,57,0.00,,,0.00,meteobridge,2014-04-20 10:30:00,
2014-04-20 03:32:00,48.4,34.7,30.09,ENE,76,0.0,0.9,59,0.00,,,0.00,meteobridge,2014-04-20 10:32:00,
2014-04-20 03:33:00,48.4,34.3,30.09,ENE,76,0.0,0.9,58,0.00,,,0.00,meteobridge,2014-04-20 10:33:00,
2014-04-20 03:35:00,48.4,34.3,30.09,ENE,76,0.0,0.9,58,0.00,,,0.00,meteobridge,2014-04-20 10:35:00,
2014-04-20 03:37:00,48.2,33.6,30.09,ENE,76,0.9,0.9,57,0.00,,,0.00,meteobridge,2014-04-20 10:37:00,
2014-04-20 03:38:00,48.2,33.6,30.09,ENE,76,0.0,0.9,57,0.00,,,0.00,meteobridge,2014-04-20 10:38:00,
2014-04-20 03:39:00,48.2,34.5,30.09,ENE,76,0.9,0.9,59,0.00,,,0.00,meteobridge,2014-04-20 10:39:00,
2014-04-20 03:42:00,48.0,34.0,30.09,ENE,76,0.9,0.9,58,0.00,,,0.00,meteobridge,2014-04-20 10:42:00,
2014-04-20 03:43:00,48.0,34.0,30.09,ENE,76,0.0,0.9,58,0.00,,,0.00,meteobridge,2014-04-20 10:43:00,
2014-04-20 03:45:00,48.0,33.4,30.09,ENE,76,0.9,0.9,57,0.00,,,0.00,meteobridge,2014-04-20 10:45:00,
2014-04-20 03:46:00,48.0,34.3,30.09,ENE,76,0.9,0.9,59,0.00,,,0.00,meteobridge,2014-04-20 10:46:00,
2014-04-20 03:48:00,47.8,33.8,30.09,ENE,76,0.9,0.9,58,0.00,,,0.00,meteobridge,2014-04-20 10:48:00,
2014-04-20 03:49:00,47.8,33.8,30.09,ENE,76,0.9,0.9,58,0.00,,,0.00,meteobridge,2014-04-20 10:49:00,
2014-04-20 03:51:00,47.8,33.3,30.09,ENE,76,0.0,0.9,57,0.00,,,0.00,meteobridge,2014-04-20 10:51:00,
2014-04-20 03:52:00,47.8,32.9,30.09,ENE,76,0.0,0.0,56,0.00,,,0.00,meteobridge,2014-04-20 10:52:00,
2014-04-20 03:53:00,47.8,33.8,30.09,ENE,76,0.0,0.9,58,0.00,,,0.00,meteobridge,2014-04-20 10:53:00,
2014-04-20 03:54:00,47.8,33.8,30.09,ENE,76,0.0,0.9,58,0.00,,,0.00,meteobridge,2014-04-20 10:54:00,
2014-04-20 03:55:00,47.8,33.3,30.09,ENE,76,0.9,0.9,57,0.00,,,0.00,meteobridge,2014-04-20 10:55:00,
2014-04-20 03:56:00,47.7,32.7,30.09,ENE,76,0.0,0.9,56,0.00,,,0.00,meteobridge,2014-04-20 10:56:00,
2014-04-20 03:57:00,47.7,32.7,30.09,ENE,76,0.0,0.9,56,0.00,,,0.00,meteobridge,2014-04-20 10:57:00,
2014-04-20 03:59:00,47.7,33.6,30.09,ENE,76,0.0,0.9,58,0.00,,,0.00,meteobridge,2014-04-20 10:59:00,
2014-04-20 04:00:00,47.7,32.7,30.09,ENE,76,0.0,0.0,56,0.00,,,0.00,meteobridge,2014-04-20 11:00:00,
2014-04-20 04:01:00,47.7,32.7,30.09,ENE,76,0.0,0.0,56,0.00,,,0.00,meteobridge,2014-04-20 11:01:00,
2014-04-20 04:04:00,47.7,33.6,30.09,ENE,76,0.0,0.9,58,0.00,,,0.00,meteobridge,2014-04-20 11:04:00,
2014-04-20 04:05:00,47.7,34.0,30.09,ENE,76,0.0,0.9,59,0.00,,,0.00,meteobridge,2014-04-20 11:05:00,
2014-04-20 04:06:00,47.7,34.0,30.09,ENE,76,0.0,0.9,59,0.00,,,0.00,meteobridge,2014-04-20 11:06:00,
2014-04-20 04:08:00,47.7,33.6,30.09,ENE,76,0.0,0.0,58,0.00,,,0.00,meteobridge,2014-04-20 11:08:00,
2014-04-20 04:09:00,47.7,34.0,30.09,ENE,76,0.0,0.9,59,0.00,,,0.00,meteobridge,2014-04-20 11:09:00,
2014-04-20 04:10:00,47.7,34.0,30.09,ENE,76,0.0,0.9,59,0.00,,,0.00,meteobridge,2014-04-20 11:10:00,
2014-04-20 04:12:00,47.7,34.0,30.09,ENE,76,0.0,0.9,59,0.00,,,0.00,meteobridge,2014-04-20 11:12:00,
2014-04-20 04:13:00,47.7,33.6,30.09,ENE,76,0.0,0.0,58,0.00,,,0.00,meteobridge,2014-04-20 11:13:00,
2014-04-20 04:14:00,47.7,32.4,30.09,ENE,76,0.9,0.9,55,0.00,,,0.00,meteobridge,2014-04-20 11:14:00,
2014-04-20 04:15:00,47.7,32.7,30.09,ENE,76,0.0,0.9,56,0.00,,,0.00,meteobridge,2014-04-20 11:15:00,
2014-04-20 04:17:00,47.7,31.8,30.09,ENE,76,0.0,0.9,54,0.00,,,0.00,meteobridge,2014-04-20 11:17:00,
2014-04-20 04:19:00,47.7,32.7,30.09,ENE,76,0.9,0.9,56,0.00,,,0.00,meteobridge,2014-04-20 11:19:00,
2014-04-20 04:20:00,47.7,32.4,30.09,ENE,76,0.0,0.9,55,0.00,,,0.00,meteobridge,2014-04-20 11:20:00,
2014-04-20 04:22:00,47.7,31.8,30.09,ENE,76,0.0,0.9,54,0.00,,,0.00,meteobridge,2014-04-20 11:22:00,
2014-04-20 04:24:00,47.7,33.3,30.09,ENE,76,0.0,0.9,57,0.00,,,0.00,meteobridge,2014-04-20 11:24:00,
2014-04-20 04:25:00,47.7,32.7,30.09,ENE,76,0.0,0.0,56,0.00,,,0.00,meteobridge,2014-04-20 11:25:00,
2014-04-20 04:26:00,47.7,32.7,30.09,ENE,76,0.0,0.0,56,0.00,,,0.00,meteobridge,2014-04-20 11:26:00,
2014-04-20 04:28:00,47.7,32.4,30.09,ENE,76,0.0,0.0,55,0.00,,,0.00,meteobridge,2014-04-20 11:28:00,
2014-04-20 04:29:00,47.7,33.3,30.09,ENE,76,0.0,0.0,57,0.00,,,0.00,meteobridge,2014-04-20 11:29:00,
2014-04-20 04:31:00,47.5,33.1,30.09,ENE,76,0.0,0.9,57,0.00,,,0.00,meteobridge,2014-04-20 11:31:00,
2014-04-20 04:33:00,47.5,31.6,30.09,ENE,76,0.0,0.9,54,0.00,,,0.00,meteobridge,2014-04-20 11:33:00,
2014-04-20 04:34:00,47.5,30.7,30.09,ENE,76,0.0,0.9,52,0.00,,,0.00,meteobridge,2014-04-20 11:34:00,
2014-04-20 04:35:00,47.5,31.3,30.09,ENE,76,0.0,0.9,53,0.00,,,0.00,meteobridge,2014-04-20 11:35:00,
2014-04-20 04:36:00,47.5,30.2,30.09,ENE,76,0.0,0.9,51,0.00,,,0.00,meteobridge,2014-04-20 11:36:00,
2014-04-20 04:38:00,47.5,30.2,30.09,ENE,76,0.0,0.0,51,0.00,,,0.00,meteobridge,2014-04-20 11:38:00,
2014-04-20 04:41:00,47.5,30.7,30.09,ENE,76,0.0,0.0,52,0.00,,,0.00,meteobridge,2014-04-20 11:41:00,
2014-04-20 04:42:00,47.5,30.7,30.09,ENE,76,0.0,0.9,52,0.00,,,0.00,meteobridge,2014-04-20 11:42:00,
2014-04-20 04:43:00,47.5,31.3,30.09,ENE,76,0.0,0.9,53,0.00,,,0.00,meteobridge,2014-04-20 11:43:00,
2014-04-20 04:44:00,47.5,30.2,30.09,ENE,76,0.0,0.9,51,0.00,,,0.00,meteobridge,2014-04-20 11:44:00,
2014-04-20 04:48:00,47.5,31.6,30.09,ENE,76,0.9,0.9,54,0.00,,,0.00,meteobridge,2014-04-20 11:48:00,
2014-04-20 04:49:00,47.5,31.6,30.09,ENE,76,0.9,0.9,54,0.00,,,0.00,meteobridge,2014-04-20 11:49:00,
2014-04-20 04:51:00,47.5,31.3,30.09,ENE,76,0.0,0.9,53,0.00,,,0.00,meteobridge,2014-04-20 11:51:00,
2014-04-20 04:52:00,47.5,33.1,30.09,ENE,76,0.0,0.9,57,0.00,,,0.00,meteobridge,2014-04-20 11:52:00,
2014-04-20 04:53:00,47.5,31.6,30.08,ENE,76,0.0,0.9,54,0.00,,,0.00,meteobridge,2014-04-20 11:53:00,
2014-04-20 04:54:00,47.5,32.2,30.09,ENE,76,0.0,0.9,55,0.00,,,0.00,meteobridge,2014-04-20 11:54:00,
2014-04-20 04:55:00,47.5,32.2,30.09,ENE,76,0.0,0.0,55,0.00,,,0.00,meteobridge,2014-04-20 11:55:00,
2014-04-20 04:57:00,47.5,32.2,30.08,ENE,76,0.0,0.0,55,0.00,,,0.00,meteobridge,2014-04-20 11:57:00,
2014-04-20 04:58:00,47.3,30.6,30.08,ENE,76,0.0,0.0,52,0.00,,,0.00,meteobridge,2014-04-20 11:58:00,
2014-04-20 04:59:00,47.5,31.3,30.08,ENE,76,0.0,0.9,53,0.00,,,0.00,meteobridge,2014-04-20 11:59:00,
2014-04-20 05:01:00,47.5,32.2,30.09,ENE,76,0.0,0.0,55,0.00,,,0.00,meteobridge,2014-04-20 12:01:00,
2014-04-20 05:02:00,47.5,31.3,30.08,ENE,76,0.0,0.9,53,0.00,,,0.00,meteobridge,2014-04-20 12:02:00,
2014-04-20 05:03:00,47.5,30.2,30.09,ENE,76,0.0,0.9,51,0.00,,,0.00,meteobridge,2014-04-20 12:03:00,
2014-04-20 05:04:00,47.5,31.6,30.09,ENE,76,0.0,0.9,54,0.00,,,0.00,meteobridge,2014-04-20 12:04:00,
2014-04-20 05:05:00,47.5,31.6,30.08,ENE,76,0.0,0.9,54,0.00,,,0.00,meteobridge,2014-04-20 12:05:00,
2014-04-20 05:06:00,47.5,31.3,30.08,ENE,76,0.9,0.9,53,0.00,,,0.00,meteobridge,2014-04-20 12:06:00,
2014-04-20 05:07:00,47.5,31.3,30.09,ENE,76,0.0,0.9,53,0.00,,,0.00,meteobridge,2014-04-20 12:07:00,
2014-04-20 05:09:00,47.5,31.3,30.08,ENE,76,0.0,0.9,53,0.00,,,0.00,meteobridge,2014-04-20 12:09:00,
2014-04-20 05:10:00,47.5,32.2,30.08,ENE,76,0.0,0.0,55,0.00,,,0.00,meteobridge,2014-04-20 12:10:00,
2014-04-20 05:11:00,47.5,32.2,30.09,ENE,76,0.0,0.0,55,0.00,,,0.00,meteobridge,2014-04-20 12:11:00,
2014-04-20 05:12:00,47.5,32.2,30.08,ENE,76,0.0,0.0,55,0.00,,,0.00,meteobridge,2014-04-20 12:12:00,
2014-04-20 05:15:00,47.3,30.0,30.08,ENE,76,0.0,0.9,51,0.00,,,0.00,meteobridge,2014-04-20 12:15:00,
2014-04-20 05:16:00,47.3,30.0,30.08,ENE,76,0.9,0.9,51,0.00,,,0.00,meteobridge,2014-04-20 12:16:00,
2014-04-20 05:17:00,47.3,30.0,30.08,ENE,76,0.0,0.9,51,0.00,,,0.00,meteobridge,2014-04-20 12:17:00,
2014-04-20 05:18:00,47.3,30.0,30.08,ENE,76,0.0,0.9,51,0.00,,,0.00,meteobridge,2014-04-20 12:18:00,
2014-04-20 05:20:00,47.3,32.4,30.08,ENE,76,0.0,0.9,56,0.00,,,0.00,meteobridge,2014-04-20 12:20:00,
2014-04-20 05:21:00,47.3,31.1,30.09,ENE,76,0.0,0.9,53,0.00,,,0.00,meteobridge,2014-04-20 12:21:00,
2014-04-20 05:22:00,47.3,33.3,30.09,ENE,76,0.0,0.9,58,0.00,,,0.00,meteobridge,2014-04-20 12:22:00,
2014-04-20 05:25:00,47.1,31.8,30.09,ENE,76,0.0,0.9,55,0.00,,,0.00,meteobridge,2014-04-20 12:25:00,
2014-04-20 05:26:00,47.3,32.0,30.09,ENE,76,0.0,0.9,55,0.00,,,0.00,meteobridge,2014-04-20 12:26:00,
2014-04-20 05:27:00,47.3,32.0,30.09,ENE,76,0.0,0.9,55,0.00,,,0.00,meteobridge,2014-04-20 12:27:00,
2014-04-20 05:28:00,47.3,32.4,30.09,ENE,76,0.0,0.9,56,0.00,,,0.00,meteobridge,2014-04-20 12:28:00,
2014-04-20 05:30:00,47.3,33.3,30.09,ENE,76,0.9,0.9,58,0.00,,,0.00,meteobridge,2014-04-20 12:30:00,
2014-04-20 05:33:00,47.3,31.1,30.09,ENE,76,0.0,0.9,53,0.00,,,0.00,meteobridge,2014-04-20 12:33:00,
2014-04-20 05:35:00,47.3,32.9,30.09,ENE,76,0.0,0.0,57,0.00,,,0.00,meteobridge,2014-04-20 12:35:00,
2014-04-20 05:36:00,47.3,32.9,30.09,ENE,76,0.0,0.0,57,0.00,,,0.00,meteobridge,2014-04-20 12:36:00,
2014-04-20 05:37:00,47.1,32.7,30.09,ENE,76,0.9,0.9,57,0.00,,,0.00,meteobridge,2014-04-20 12:37:00,
2014-04-20 05:39:00,47.3,32.0,30.09,ENE,76,0.0,0.9,55,0.00,,,0.00,meteobridge,2014-04-20 12:39:00,
2014-04-20 05:40:00,47.1,31.3,30.09,ENE,76,0.9,0.9,54,0.00,,,0.00,meteobridge,2014-04-20 12:40:00,
2014-04-20 05:41:00,47.1,31.8,30.09,ENE,76,0.9,0.9,55,0.00,,,0.00,meteobridge,2014-04-20 12:41:00,
2014-04-20 05:43:00,47.3,32.0,30.09,ENE,76,0.9,0.9,55,0.00,,,0.00,meteobridge,2014-04-20 12:43:00,
2014-04-20 05:44:00,47.3,32.0,30.09,ENE,75,0.0,0.9,55,0.00,,,0.00,meteobridge,2014-04-20 12:44:00,
2014-04-20 05:46:00,47.3,31.5,30.09,ENE,76,0.0,0.9,54,0.00,,,0.00,meteobridge,2014-04-20 12:46:00,
2014-04-20 05:48:00,47.3,33.3,30.09,ENE,76,0.0,0.9,58,0.00,,,0.00,meteobridge,2014-04-20 12:48:00,
2014-04-20 05:49:00,47.3,33.3,30.09,ENE,76,0.0,0.9,58,0.00,,,0.00,meteobridge,2014-04-20 12:49:00,
2014-04-20 05:51:00,47.3,30.6,30.09,ENE,76,0.0,0.9,52,0.00,,,0.00,meteobridge,2014-04-20 12:51:00,
2014-04-20 05:53:00,47.3,32.9,30.09,ENE,76,0.0,0.9,57,0.00,,,0.00,meteobridge,2014-04-20 12:53:00,
2014-04-20 05:54:00,47.3,32.9,30.09,ENE,76,0.0,0.9,57,0.00,,,0.00,meteobridge,2014-04-20 12:54:00,
2014-04-20 05:55:00,47.3,32.9,30.09,ENE,76,0.0,0.9,57,0.00,,,0.00,meteobridge,2014-04-20 12:55:00,
2014-04-20 05:58:00,47.3,31.5,30.09,ENE,76,0.0,0.9,54,0.00,,,0.00,meteobridge,2014-04-20 12:58:00,
2014-04-20 05:59:00,47.3,31.1,30.09,ENE,76,0.9,0.9,53,0.00,,,0.00,meteobridge,2014-04-20 12:59:00,
2014-04-20 06:00:00,47.3,31.1,30.09,ENE,75,0.0,0.9,53,0.00,,,0.00,meteobridge,2014-04-20 13:00:00,
2014-04-20 06:02:00,47.3,31.1,30.09,ENE,76,0.0,0.9,53,0.00,,,0.00,meteobridge,2014-04-20 13:02:00,
2014-04-20 06:03:00,47.3,30.6,30.09,ENE,76,0.0,0.9,52,0.00,,,0.00,meteobridge,2014-04-20 13:03:00,
2014-04-20 06:04:00,47.3,30.6,30.09,ENE,76,0.0,0.9,52,0.00,,,0.00,meteobridge,2014-04-20 13:04:00,
2014-04-20 06:06:00,47.3,31.1,30.09,ENE,76,0.9,0.9,53,0.00,,,0.00,meteobridge,2014-04-20 13:06:00,
2014-04-20 06:07:00,47.1,31.3,30.09,ENE,76,0.0,0.9,54,0.00,,,0.00,meteobridge,2014-04-20 13:07:00,
2014-04-20 06:08:00,47.1,31.3,30.09,ENE,76,0.0,0.9,54,0.00,,,0.00,meteobridge,2014-04-20 13:08:00,
2014-04-20 06:10:00,47.1,30.9,30.09,ENE,76,0.9,0.9,53,0.00,,,0.00,meteobridge,2014-04-20 13:10:00,
2014-04-20 06:12:00,47.1,31.3,30.09,ENE,76,0.0,0.9,54,0.00,,,0.00,meteobridge,2014-04-20 13:12:00,
2014-04-20 06:13:00,46.9,31.1,30.09,ENE,76,0.9,0.9,54,0.00,,,0.00,meteobridge,2014-04-20 13:13:00,
2014-04-20 06:14:00,46.9,31.6,30.09,ENE,76,0.9,0.9,55,0.00,,,0.00,meteobridge,2014-04-20 13:14:00,
2014-04-20 06:15:00,46.9,30.7,30.10,ENE,76,0.9,0.9,53,0.00,,,0.00,meteobridge,2014-04-20 13:15:00,
2014-04-20 06:16:00,46.9,30.7,30.09,ENE,76,0.9,0.9,53,0.00,,,0.00,meteobridge,2014-04-20 13:16:00,
2014-04-20 06:18:00,46.9,31.1,30.09,ENE,76,0.9,0.9,54,0.00,,,0.00,meteobridge,2014-04-20 13:18:00,
2014-04-20 06:19:00,46.8,30.9,30.09,ENE,76,0.0,0.9,54,0.00,,,0.00,meteobridge,2014-04-20 13:19:00,
2014-04-20 06:21:00,46.8,30.6,30.09,ENE,76,0.9,0.9,53,0.00,,,0.00,meteobridge,2014-04-20 13:21:00,
2014-04-20 06:23:00,46.8,30.9,30.10,ENE,76,0.9,0.9,54,0.00,,,0.00,meteobridge,2014-04-20 13:23:00,
2014-04-20 06:24:00,46.8,30.6,30.10,ENE,76,0.9,0.9,53,0.00,,,0.00,meteobridge,2014-04-20 13:24:00,
2014-04-20 06:25:00,46.8,30.9,30.10,ENE,76,0.9,0.9,54,0.00,,,0.00,meteobridge,2014-04-20 13:25:00,
2014-04-20 06:26:00,46.8,30.9,30.10,ENE,76,0.0,0.9,54,0.00,,,0.00,meteobridge,2014-04-20 13:26:00,
2014-04-20 06:28:00,46.8,30.9,30.10,ENE,76,0.9,0.9,54,0.00,,,0.00,meteobridge,2014-04-20 13:28:00,
2014-04-20 06:31:00,46.6,30.7,30.10,ENE,76,0.0,0.9,54,0.00,,,0.00,meteobridge,2014-04-20 13:31:00,
2014-04-20 06:32:00,46.6,30.4,30.10,ENE,76,0.9,0.9,53,0.00,,,0.00,meteobridge,2014-04-20 13:32:00,
2014-04-20 06:34:00,46.6,30.7,30.10,ENE,76,0.9,0.9,54,0.00,,,0.00,meteobridge,2014-04-20 13:34:00,
2014-04-20 06:37:00,46.6,30.4,30.10,ENE,76,0.9,0.9,53,0.00,,,0.00,meteobridge,2014-04-20 13:37:00,
2014-04-20 06:39:00,46.6,31.3,30.10,ENE,76,0.0,0.9,55,0.00,,,0.00,meteobridge,2014-04-20 13:39:00,
2014-04-20 06:40:00,46.6,30.7,30.10,ENE,76,0.9,0.9,54,0.00,,,0.00,meteobridge,2014-04-20 13:40:00,
2014-04-20 06:41:00,46.6,30.7,30.10,ENE,76,0.9,0.9,54,0.00,,,0.00,meteobridge,2014-04-20 13:41:00,
2014-04-20 06:42:00,46.4,29.7,30.10,ENE,76,0.0,0.9,52,0.00,,,0.00,meteobridge,2014-04-20 13:42:00,
2014-04-20 06:43:00,46.4,29.7,30.10,ENE,76,0.0,0.0,52,0.00,,,0.00,meteobridge,2014-04-20 13:43:00,
2014-04-20 06:45:00,46.6,29.8,30.10,ENE,76,0.0,0.9,52,0.00,,,0.00,meteobridge,2014-04-20 13:45:00,
2014-04-20 06:46:00,46.6,30.4,30.10,ENE,76,0.0,0.9,53,0.00,,,0.00,meteobridge,2014-04-20 13:46:00,
2014-04-20 06:47:00,46.6,30.4,30.10,ENE,76,0.0,0.9,53,0.00,,,0.00,meteobridge,2014-04-20 13:47:00,
2014-04-20 06:50:00,46.6,29.5,30.10,ENE,76,0.0,0.9,51,0.00,,,0.00,meteobridge,2014-04-20 13:50:00,
2014-04-20 06:51:00,46.6,30.4,30.10,ENE,76,0.0,0.0,53,0.00,,,0.00,meteobridge,2014-04-20 13:51:00,
2014-04-20 06:52:00,46.6,29.8,30.10,ENE,76,0.0,0.0,52,0.00,,,0.00,meteobridge,2014-04-20 13:52:00,
2014-04-20 06:53:00,46.6,29.5,30.10,ENE,76,0.0,0.0,51,0.00,,,0.00,meteobridge,2014-04-20 13:53:00,
2014-04-20 06:56:00,46.6,29.5,30.10,ENE,76,0.0,0.9,51,0.00,,,0.00,meteobridge,2014-04-20 13:56:00,
2014-04-20 06:58:00,46.6,28.4,30.10,ENE,76,0.0,0.9,49,0.00,,,0.00,meteobridge,2014-04-20 13:58:00,
2014-04-20 06:59:00,46.6,28.4,30.10,ENE,76,0.0,0.0,49,0.00,,,0.00,meteobridge,2014-04-20 13:59:00,
2014-04-20 07:01:00,46.6,27.9,30.10,ENE,76,0.9,0.9,48,0.00,,,0.00,meteobridge,2014-04-20 14:01:00,
2014-04-20 07:03:00,46.8,28.0,30.10,ENE,76,0.0,0.9,48,0.00,,,0.00,meteobridge,2014-04-20 14:03:00,
2014-04-20 07:05:00,46.8,29.1,30.10,ENE,76,0.0,0.9,50,0.00,,,0.00,meteobridge,2014-04-20 14:05:00,
2014-04-20 07:06:00,46.8,29.7,30.10,ENE,76,0.0,0.9,51,0.00,,,0.00,meteobridge,2014-04-20 14:06:00,
2014-04-20 07:07:00,46.8,29.7,30.10,ENE,76,0.0,0.0,51,0.00,,,0.00,meteobridge,2014-04-20 14:07:00,
2014-04-20 07:10:00,46.8,29.7,30.10,ENE,76,0.0,0.0,51,0.00,,,0.00,meteobridge,2014-04-20 14:10:00,
2014-04-20 07:11:00,46.8,29.7,30.10,ENE,76,0.0,0.0,51,0.00,,,0.00,meteobridge,2014-04-20 14:11:00,
2014-04-20 07:12:00,46.8,31.5,30.10,ENE,76,0.9,0.9,55,0.00,,,0.00,meteobridge,2014-04-20 14:12:00,
2014-04-20 07:14:00,46.8,31.8,30.10,ENE,76,0.9,0.9,56,0.00,,,0.00,meteobridge,2014-04-20 14:14:00,
2014-04-20 07:17:00,46.6,30.7,30.10,ENE,76,0.0,0.0,54,0.00,,,0.00,meteobridge,2014-04-20 14:17:00,
2014-04-20 07:18:00,46.6,30.7,30.10,ENE,76,0.0,0.9,54,0.00,,,0.00,meteobridge,2014-04-20 14:18:00,
2014-04-20 07:19:00,46.6,29.8,30.10,ENE,76,0.0,0.9,52,0.00,,,0.00,meteobridge,2014-04-20 14:19:00,
2014-04-20 07:21:00,46.8,30.6,30.10,ENE,76,0.0,0.9,53,0.00,,,0.00,meteobridge,2014-04-20 14:21:00,
2014-04-20 07:22:00,46.8,30.6,30.10,ENE,76,0.0,0.0,53,0.00,,,0.00,meteobridge,2014-04-20 14:22:00,
2014-04-20 07:23:00,46.8,30.9,30.10,ENE,76,0.0,0.0,54,0.00,,,0.00,meteobridge,2014-04-20 14:23:00,
2014-04-20 07:26:00,46.8,30.6,30.10,ENE,76,0.0,0.9,53,0.00,,,0.00,meteobridge,2014-04-20 14:26:00,
2014-04-20 07:27:00,46.8,30.6,30.10,ENE,76,0.0,0.0,53,0.00,,,0.00,meteobridge,2014-04-20 14:27:00,
2014-04-20 07:28:00,46.8,30.6,30.10,ENE,76,0.0,0.0,53,0.00,,,0.00,meteobridge,2014-04-20 14:28:00,
2014-04-20 07:29:00,46.8,31.5,30.10,ENE,76,0.0,0.9,55,0.00,,,0.00,meteobridge,2014-04-20 14:29:00,
2014-04-20 07:32:00,46.9,31.1,30.11,ENE,76,0.0,0.0,54,0.00,,,0.00,meteobridge,2014-04-20 14:32:00,
2014-04-20 07:33:00,46.9,30.7,30.11,ENE,76,0.0,0.0,53,0.00,,,0.00,meteobridge,2014-04-20 14:33:00,
2014-04-20 07:34:00,46.9,31.1,30.11,ENE,76,0.0,0.9,54,0.00,,,0.00,meteobridge,2014-04-20 14:34:00,
2014-04-20 07:36:00,47.1,31.8,30.11,ENE,76,0.0,0.9,55,0.00,,,0.00,meteobridge,2014-04-20 14:36:00,
2014-04-20 07:38:00,47.1,31.3,30.11,ENE,76,0.0,0.0,54,0.00,,,0.00,meteobridge,2014-04-20 14:38:00,
2014-04-20 07:39:00,47.1,31.8,30.11,ENE,76,0.0,0.0,55,0.00,,,0.00,meteobridge,2014-04-20 14:39:00,
2014-04-20 07:40:00,47.1,31.8,30.11,ENE,76,0.0,0.0,55,0.00,,,0.00,meteobridge,2014-04-20 14:40:00,
2014-04-20 07:42:00,47.1,31.8,30.11,ENE,76,0.0,0.0,55,0.00,,,0.00,meteobridge,2014-04-20 14:42:00,
2014-04-20 07:45:00,47.3,32.0,30.11,ENE,76,0.0,0.0,55,0.00,,,0.00,meteobridge,2014-04-20 14:45:00,
2014-04-20 07:46:00,47.3,32.0,30.11,ENE,76,0.0,0.0,55,0.00,,,0.00,meteobridge,2014-04-20 14:46:00,
2014-04-20 07:47:00,47.5,31.6,30.11,ENE,76,0.0,0.0,54,0.00,,,0.00,meteobridge,2014-04-20 14:47:00,
2014-04-20 07:48:00,47.5,32.2,30.11,ENE,76,0.0,0.0,55,0.00,,,0.00,meteobridge,2014-04-20 14:48:00,
2014-04-20 07:50:00,47.5,32.2,30.11,ENE,76,0.0,0.9,55,0.00,,,0.00,meteobridge,2014-04-20 14:50:00,
2014-04-20 07:52:00,47.7,32.7,30.11,ENE,76,0.9,0.9,56,0.00,,,0.00,meteobridge,2014-04-20 14:52:00,
2014-04-20 07:53:00,47.7,32.7,30.11,ENE,76,0.9,0.9,56,0.00,,,0.00,meteobridge,2014-04-20 14:53:00,
2014-04-20 07:55:00,47.8,32.5,30.11,ENE,76,0.0,0.9,55,0.00,,,0.00,meteobridge,2014-04-20 14:55:00,
2014-04-20 07:57:00,48.0,32.2,30.10,ENE,76,0.0,0.0,54,0.00,,,0.00,meteobridge,2014-04-20 14:57:00,
2014-04-20 07:58:00,48.0,32.2,30.10,ENE,76,0.9,0.9,54,0.00,,,0.00,meteobridge,2014-04-20 14:58:00,
2014-04-20 08:00:00,48.4,32.0,30.11,ENE,76,0.0,0.9,53,0.00,,,0.00,meteobridge,2014-04-20 15:00:00,
2014-04-20 08:02:00,48.6,31.8,30.11,ENE,76,0.0,0.0,52,0.00,,,0.00,meteobridge,2014-04-20 15:02:00,
2014-04-20 08:03:00,48.6,31.8,30.11,ENE,76,0.0,0.0,52,0.00,,,0.00,meteobridge,2014-04-20 15:03:00,
2014-04-20 08:04:00,48.7,31.8,30.11,ENE,76,0.0,0.0,52,0.00,,,0.00,meteobridge,2014-04-20 15:04:00,
2014-04-20 08:05:00,48.7,31.8,30.11,ENE,76,0.0,0.9,52,0.00,,,0.00,meteobridge,2014-04-20 15:05:00,
2014-04-20 08:07:00,48.9,32.0,30.11,ENE,76,0.9,0.9,52,0.00,,,0.00,meteobridge,2014-04-20 15:07:00,
2014-04-20 08:08:00,48.9,32.0,30.11,ENE,76,0.0,0.9,52,0.00,,,0.00,meteobridge,2014-04-20 15:08:00,
2014-04-20 08:11:00,49.3,32.4,30.11,ENE,76,0.0,0.9,52,0.00,,,0.00,meteobridge,2014-04-20 15:11:00,
2014-04-20 08:12:00,49.5,33.1,30.11,ENE,76,0.9,0.9,53,0.00,,,0.00,meteobridge,2014-04-20 15:12:00,
2014-04-20 08:13:00,49.5,32.5,30.11,ENE,76,0.0,0.9,52,0.00,,,0.00,meteobridge,2014-04-20 15:13:00,
2014-04-20 08:14:00,49.6,33.6,30.11,ENE,76,0.0,0.9,54,0.00,,,0.00,meteobridge,2014-04-20 15:14:00,
2014-04-20 08:17:00,49.8,33.4,30.11,ENE,76,0.0,0.9,53,0.00,,,0.00,meteobridge,2014-04-20 15:17:00,
2014-04-20 08:18:00,50.0,34.0,30.11,ENE,76,0.0,0.0,54,0.00,,,0.00,meteobridge,2014-04-20 15:18:00,
2014-04-20 08:19:00,50.2,34.2,30.11,ENE,76,0.0,0.0,54,0.00,,,0.00,meteobridge,2014-04-20 15:19:00,
2014-04-20 08:21:00,50.2,33.6,30.11,ENE,76,0.0,0.0,53,0.00,,,0.00,meteobridge,2014-04-20 15:21:00,
2014-04-20 08:23:00,50.5,34.0,30.11,ENE,76,0.0,0.0,53,0.00,,,0.00,meteobridge,2014-04-20 15:23:00,
2014-04-20 08:24:00,50.5,34.0,30.11,ENE,76,0.0,0.9,53,0.00,,,0.00,meteobridge,2014-04-20 15:24:00,
2014-04-20 08:25:00,50.5,34.0,30.11,ENE,76,0.0,0.0,53,0.00,,,0.00,meteobridge,2014-04-20 15:25:00,
2014-04-20 08:26:00,50.7,34.2,30.11,ENE,76,0.0,0.9,53,0.00,,,0.00,meteobridge,2014-04-20 15:26:00,
2014-04-20 08:27:00,50.7,34.2,30.11,ENE,76,0.0,0.9,53,0.00,,,0.00,meteobridge,2014-04-20 15:27:00,
2014-04-20 08:29:00,51.1,35.1,30.11,ENE,76,0.0,0.0,54,0.00,,,0.00,meteobridge,2014-04-20 15:29:00,
2014-04-20 08:30:00,51.3,35.2,30.11,ENE,76,0.0,0.9,54,0.00,,,0.00,meteobridge,2014-04-20 15:30:00,
2014-04-20 08:32:00,51.4,35.8,30.10,ENE,76,0.0,0.9,55,0.00,,,0.00,meteobridge,2014-04-20 15:32:00,
2014-04-20 08:33:00,51.4,35.8,30.10,ENE,76,0.0,0.0,55,0.00,,,0.00,meteobridge,2014-04-20 15:33:00,
2014-04-20 08:34:00,51.6,36.5,30.10,ENE,76,0.0,0.0,56,0.00,,,0.00,meteobridge,2014-04-20 15:34:00,
2014-04-20 08:35:00,51.8,36.7,30.10,ENE,76,0.0,0.0,56,0.00,,,0.00,meteobridge,2014-04-20 15:35:00,
2014-04-20 08:36:00,52.0,36.3,30.10,ENE,76,0.0,0.0,55,0.00,,,0.00,meteobridge,2014-04-20 15:36:00,
2014-04-20 08:40:00,52.2,37.4,30.10,ENE,76,0.0,0.0,57,0.00,,,0.00,meteobridge,2014-04-20 15:40:00,
2014-04-20 08:41:00,52.2,37.8,30.10,ENE,76,0.0,0.0,58,0.00,,,0.00,meteobridge,2014-04-20 15:41:00,
2014-04-20 08:42:00,52.2,37.8,30.10,ENE,76,0.0,0.0,58,0.00,,,0.00,meteobridge,2014-04-20 15:42:00,
2014-04-20 08:46:00,52.5,37.8,30.10,ENE,76,0.0,0.9,57,0.00,,,0.00,meteobridge,2014-04-20 15:46:00,
2014-04-20 08:47:00,52.5,37.8,30.10,ENE,76,0.0,0.9,57,0.00,,,0.00,meteobridge,2014-04-20 15:47:00,
2014-04-20 08:48:00,52.7,38.3,30.10,ENE,76,0.0,0.0,58,0.00,,,0.00,meteobridge,2014-04-20 15:48:00,
2014-04-20 08:51:00,53.1,38.3,30.10,ENE,76,0.0,0.0,57,0.00,,,0.00,meteobridge,2014-04-20 15:51:00,
2014-04-20 08:52:00,53.1,39.6,30.10,ENE,76,0.0,0.0,60,0.00,,,0.00,meteobridge,2014-04-20 15:52:00,
2014-04-20 08:53:00,53.2,39.2,30.10,ENE,76,0.0,0.0,59,0.00,,,0.00,meteobridge,2014-04-20 15:53:00,
2014-04-20 08:54:00,53.2,39.2,30.10,ENE,76,0.0,0.0,59,0.00,,,0.00,meteobridge,2014-04-20 15:54:00,
2014-04-20 08:55:00,53.2,39.2,30.11,ENE,76,0.0,0.0,59,0.00,,,0.00,meteobridge,2014-04-20 15:55:00,
2014-04-20 08:56:00,53.2,38.8,30.11,ENE,76,0.0,0.0,58,0.00,,,0.00,meteobridge,2014-04-20 15:56:00,
2014-04-20 08:58:00,53.6,40.1,30.11,ENE,76,0.0,0.0,60,0.00,,,0.00,meteobridge,2014-04-20 15:58:00,
2014-04-20 08:59:00,53.6,40.1,30.11,ENE,76,0.9,0.9,60,0.00,,,0.00,meteobridge,2014-04-20 15:59:00,
2014-04-20 09:00:00,53.8,40.6,30.11,ENE,76,0.0,0.9,61,0.00,,,0.00,meteobridge,2014-04-20 16:00:00,
2014-04-20 09:01:00,53.8,40.6,30.11,ENE,76,0.9,0.9,61,0.00,,,0.00,meteobridge,2014-04-20 16:01:00,
2014-04-20 09:03:00,54.0,39.6,30.11,ENE,76,0.0,0.0,58,0.00,,,0.00,meteobridge,2014-04-20 16:03:00,
2014-04-20 09:04:00,54.1,40.1,30.11,ENE,76,0.0,0.0,59,0.00,,,0.00,meteobridge,2014-04-20 16:04:00,
2014-04-20 09:06:00,54.1,40.6,30.11,ENE,76,0.0,0.9,60,0.00,,,0.00,meteobridge,2014-04-20 16:06:00,
2014-04-20 09:07:00,54.3,41.2,30.11,ENE,76,0.0,0.0,61,0.00,,,0.00,meteobridge,2014-04-20 16:07:00,
2014-04-20 09:10:00,54.5,40.8,30.11,ENE,76,0.0,0.0,60,0.00,,,0.00,meteobridge,2014-04-20 16:10:00,
2014-04-20 09:11:00,54.7,41.0,30.11,ENE,76,0.0,0.0,60,0.00,,,0.00,meteobridge,2014-04-20 16:11:00,
2014-04-20 09:12:00,54.7,40.6,30.11,ENE,76,0.0,0.0,59,0.00,,,0.00,meteobridge,2014-04-20 16:12:00,
2014-04-20 09:13:00,54.7,40.6,30.11,ENE,76,0.0,0.0,59,0.00,,,0.00,meteobridge,2014-04-20 16:13:00,
2014-04-20 09:14:00,54.9,40.8,30.11,ENE,76,0.0,0.0,59,0.00,,,0.00,meteobridge,2014-04-20 16:14:00,
2014-04-20 09:16:00,55.0,41.0,30.11,ENE,76,0.0,0.0,59,0.00,,,0.00,meteobridge,2014-04-20 16:16:00,
2014-04-20 09:17:00,55.0,41.9,30.11,ENE,76,0.0,0.9,61,0.00,,,0.00,meteobridge,2014-04-20 16:17:00,
2014-04-20 09:19:00,55.2,42.1,30.11,ENE,76,0.0,0.0,61,0.00,,,0.00,meteobridge,2014-04-20 16:19:00,
2014-04-20 09:22:00,55.6,41.9,30.11,ENE,76,0.0,0.0,60,0.00,,,0.00,meteobridge,2014-04-20 16:22:00,
2014-04-20 09:23:00,55.8,43.3,30.10,ENE,76,0.0,0.0,63,0.00,,,0.00,meteobridge,2014-04-20 16:23:00,
2014-04-20 09:25:00,55.8,43.0,30.11,ENE,76,0.0,0.0,62,0.00,,,0.00,meteobridge,2014-04-20 16:25:00,
2014-04-20 09:27:00,55.9,42.6,30.11,ENE,76,0.0,0.9,61,0.00,,,0.00,meteobridge,2014-04-20 16:27:00,
2014-04-20 09:28:00,56.1,44.1,30.11,ENE,76,0.0,0.0,64,0.00,,,0.00,meteobridge,2014-04-20 16:28:00,
2014-04-20 09:29:00,56.1,44.1,30.11,ENE,76,0.0,0.0,64,0.00,,,0.00,meteobridge,2014-04-20 16:29:00,
2014-04-20 09:30:00,56.3,44.2,30.11,ENE,77,0.0,0.0,64,0.00,,,0.00,meteobridge,2014-04-20 16:30:00,
2014-04-20 09:31:00,56.5,41.4,30.10,ENE,76,0.0,0.0,57,0.00,,,0.00,meteobridge,2014-04-20 16:31:00,
2014-04-20 09:32:00,56.7,44.2,30.10,ENE,76,0.0,0.0,63,0.00,,,0.00,meteobridge,2014-04-20 16:32:00,
2014-04-20 09:35:00,56.8,43.5,30.10,ENE,76,0.0,0.9,61,0.00,,,0.00,meteobridge,2014-04-20 16:35:00,
2014-04-20 09:36:00,57.0,42.4,30.10,ENE,76,0.0,0.9,58,0.00,,,0.00,meteobridge,2014-04-20 16:36:00,
2014-04-20 09:37:00,57.0,41.9,30.10,ENE,76,0.9,0.9,57,0.00,,,0.00,meteobridge,2014-04-20 16:37:00,
2014-04-20 09:38:00,57.4,42.3,30.10,ENE,76,0.0,0.9,57,0.00,,,0.00,meteobridge,2014-04-20 16:38:00,
2014-04-20 09:40:00,57.7,42.6,30.10,ENE,76,0.0,0.9,57,0.00,,,0.00,meteobridge,2014-04-20 16:40:00,
2014-04-20 09:42:00,57.9,41.4,30.10,ENE,76,0.0,0.0,54,0.00,,,0.00,meteobridge,2014-04-20 16:42:00,
2014-04-20 09:43:00,58.1,39.0,30.11,ENE,76,0.0,0.0,49,0.00,,,0.00,meteobridge,2014-04-20 16:43:00,
2014-04-20 09:45:00,58.5,38.3,30.10,ENE,76,0.0,0.0,47,0.00,,,0.00,meteobridge,2014-04-20 16:45:00,
2014-04-20 09:47:00,58.8,38.7,30.11,ENE,76,0.0,0.0,47,0.00,,,0.00,meteobridge,2014-04-20 16:47:00,
2014-04-20 09:48:00,59.0,39.9,30.11,ENE,76,0.0,0.0,49,0.00,,,0.00,meteobridge,2014-04-20 16:48:00,
2014-04-20 09:49:00,59.2,40.6,30.10,ENE,76,0.0,0.0,50,0.00,,,0.00,meteobridge,2014-04-20 16:49:00,
2014-04-20 09:50:00,59.2,40.6,30.10,ENE,76,0.0,0.0,50,0.00,,,0.00,meteobridge,2014-04-20 16:50:00,
2014-04-20 09:52:00,59.5,39.4,30.10,ENE,77,0.0,0.9,47,0.00,,,0.00,meteobridge,2014-04-20 16:52:00,
2014-04-20 09:53:00,59.7,38.8,30.10,ENE,77,0.0,0.9,46,0.00,,,0.00,meteobridge,2014-04-20 16:53:00,
2014-04-20 09:54:00,59.9,39.0,30.10,ENE,77,0.0,0.0,46,0.00,,,0.00,meteobridge,2014-04-20 16:54:00,
2014-04-20 09:55:00,59.9,40.6,30.10,ENE,77,0.0,0.0,49,0.00,,,0.00,meteobridge,2014-04-20 16:55:00,
2014-04-20 09:59:00,60.4,39.0,30.11,ENE,77,0.0,0.0,45,0.00,,,0.00,meteobridge,2014-04-20 16:59:00,
2014-04-20 10:00:00,60.6,39.2,30.11,ENE,76,0.0,0.0,45,0.00,,,0.00,meteobridge,2014-04-20 17:00:00,
2014-04-20 10:01:00,61.0,40.1,30.11,ENE,77,0.0,0.0,46,0.00,,,0.00,meteobridge,2014-04-20 17:01:00,
2014-04-20 10:04:00,61.5,38.3,30.11,ENE,65,0.0,0.9,42,0.00,,,0.00,meteobridge,2014-04-20 17:04:00,
2014-04-20 10:05:00,61.7,36.5,30.11,ENE,64,0.0,0.9,39,0.00,,,0.00,meteobridge,2014-04-20 17:05:00,
2014-04-20 10:07:00,62.2,38.3,30.11,ENE,65,0.0,0.0,41,0.00,,,0.00,meteobridge,2014-04-20 17:07:00,
2014-04-20 10:09:00,62.8,38.1,30.11,ENE,65,0.0,0.0,40,0.00,,,0.00,meteobridge,2014-04-20 17:09:00,
2014-04-20 10:11:00,63.1,36.5,30.11,ENE,65,0.0,0.0,37,0.00,,,0.00,meteobridge,2014-04-20 17:11:00,
2014-04-20 10:12:00,63.1,36.5,30.11,ENE,65,0.0,0.0,37,0.00,,,0.00,meteobridge,2014-04-20 17:12:00,
2014-04-20 10:13:00,63.5,38.7,30.11,ENE,64,0.0,0.0,40,0.00,,,0.00,meteobridge,2014-04-20 17:13:00,
2014-04-20 10:14:00,63.9,40.3,30.11,ENE,64,0.0,0.0,42,0.00,,,0.00,meteobridge,2014-04-20 17:14:00,
2014-04-20 10:15:00,64.0,40.5,30.11,ENE,64,0.0,0.0,42,0.00,,,0.00,meteobridge,2014-04-20 17:15:00,
2014-04-20 10:16:00,64.4,38.8,30.11,ENE,64,0.0,0.0,39,0.00,,,0.00,meteobridge,2014-04-20 17:16:00,
2014-04-20 10:18:00,64.8,37.9,30.11,ENE,65,0.0,0.0,37,0.00,,,0.00,meteobridge,2014-04-20 17:18:00,
2014-04-20 10:20:00,65.3,36.9,30.11,ENE,65,0.0,0.9,35,0.00,,,0.00,meteobridge,2014-04-20 17:20:00,
2014-04-20 10:21:00,65.5,37.8,30.11,ENE,64,0.0,0.9,36,0.00,,,0.00,meteobridge,2014-04-20 17:21:00,
2014-04-20 10:23:00,66.0,38.3,30.11,ENE,64,0.0,0.0,36,0.00,,,0.00,meteobridge,2014-04-20 17:23:00,
2014-04-20 10:24:00,66.2,38.5,30.11,ENE,64,0.0,0.0,36,0.00,,,0.00,meteobridge,2014-04-20 17:24:00,
2014-04-20 10:25:00,66.4,39.9,30.11,ENE,65,0.0,0.9,38,0.00,,,0.00,meteobridge,2014-04-20 17:25:00,
2014-04-20 10:26:00,66.6,39.6,30.11,ENE,64,0.9,0.9,37,0.00,,,0.00,meteobridge,2014-04-20 17:26:00,
2014-04-20 10:28:00,66.6,35.8,30.11,ENE,65,0.9,2.0,32,0.00,,,0.00,meteobridge,2014-04-20 17:28:00,
2014-04-20 10:29:00,66.6,35.8,30.11,ENE,65,0.0,2.0,32,0.00,,,0.00,meteobridge,2014-04-20 17:29:00,
2014-04-20 10:30:00,66.6,35.8,30.11,ENE,65,2.0,2.0,32,0.00,,,0.00,meteobridge,2014-04-20 17:30:00,
2014-04-20 10:33:00,66.7,34.3,30.12,WSW,245,0.0,2.0,30,0.00,,,0.00,meteobridge,2014-04-20 17:33:00,
2014-04-20 10:34:00,66.7,35.1,30.12,WSW,245,0.0,0.9,31,0.00,,,0.00,meteobridge,2014-04-20 17:34:00,